Theta_e
302 302 303 303 303 303 304 303 302 302 303 302 302 302 302 302 303 302 308 311 313 314 314 315 316 315 317 320 324 322 324 322 323 326 326 326 324 324 325 329 329 331 333 331 332 329 330 333 333 334 336 334 332 331
303 303 302 302 302 303 303 303 302 302 303 303 302 302 302 302 302 302 307 312 312 312 313 314 314 314 315 315 316 318 322 324 326 327 325 324 324 324 328 326 329 330 331 331 332 337 333 332 332 330 330 330 330 329
303 301 301 302 302 302 303 303 303 302 303 303 302 302 302 302 302 302 304 307 309 310 311 312 312 313 313 312 312 314 317 320 321 322 323 326 328 328 327 324 328 328 327 329 332 329 329 329 329 329 327 327 327 327
301 300 301 302 302 302 302 302 303 303 303 302 303 302 302 302 302 301 304 307 308 309 311 313 313 313 314 314 314 312 312 314 317 319 321 325 325 323 326 325 327 325 327 329 330 328 326 326 325 327 326 328 327 326
300 299 301 302 301 301 303 303 302 302 303 302 303 302 302 301 302 302 304 306 307 309 312 313 312 313 313 313 314 314 313 313 315 317 319 321 320 321 322 324 324 324 328 327 328 329 328 328 326 325 325 325 325 324
300 299 301 301 300 302 302 302 303 303 303 303 303 302 302 301 301 303 308 308 307 307 308 312 312 312 312 313 312 312 314 315 314 316 317 317 318 319 321 324 323 322 323 323 325 322 322 323 323 323 323 323 324 324
300 300 299 299 299 301 302 302 302 303 304 303 303 303 301 301 302 304 306 308 307 308 309 312 314 314 312 313 313 312 313 313 314 315 317 317 317 317 319 324 322 322 322 322 323 322 322 322 321 322 322 323 322 322
300 301 298 297 299 302 302 303 303 303 303 303 303 303 301 301 301 302 304 305 307 308 310 313 314 313 314 315 315 315 313 313 313 315 316 317 317 319 321 320 319 321 322 322 321 322 322 322 321 322 324 325 322 322
300 301 298 298 300 302 302 302 303 303 302 302 302 302 302 302 304 307 305 305 308 309 312 311 312 313 315 316 316 316 316 316 314 318 318 318 320 321 320 320 320 321 322 322 321 321 321 320 321 324 325 326 326 324
300 301 300 296 299 301 302 302 303 302 302 302 302 304 305 305 306 306 305 308 308 310 309 311 310 313 313 314 316 318 317 319 319 317 316 319 320 318 317 320 322 321 322 322 323 324 324 323 323 325 325 325 327 324
300 301 301 297 299 301 303 303 303 302 302 303 305 305 307 308 307 308 309 308 310 311 311 311 311 312 310 313 317 317 317 319 320 318 317 318 320 321 318 318 318 319 320 323 322 322 323 324 325 325 325 326 327 327
300 301 301 298 298 300 302 303 302 302 304 305 306 307 307 309 309 311 312 312 312 313 313 313 313 312 312 313 317 318 318 319 321 319 321 322 322 320 319 320 322 319 320 324 323 324 326 326 325 326 325 325 327 326
299 298 298 297 297 300 302 303 302 303 304 305 306 308 308 310 313 311 313 314 314 313 315 316 319 316 315 316 317 319 319 316 314 320 320 323 323 319 318 318 324 325 327 326 327 326 326 326 326 327 328 329 329 328
299 301 300 297 299 301 302 303 302 303 303 306 307 311 310 311 312 312 312 313 313 316 316 316 318 318 316 318 318 318 318 322 322 325 327 327 324 323 320 326 326 326 326 326 327 326 327 327 327 327 328 328 328 323
301 300 301 303 303 302 303 303 302 302 304 307 306 309 310 310 312 314 315 314 315 316 317 317 319 318 320 319 320 317 322 323 325 322 324 322 323 324 323 323 324 325 325 325 326 324 325 325 325 325 325 323 322 327
303 302 303 304 303 303 302 302 302 304 305 307 307 310 310 312 314 314 315 315 316 318 319 319 320 320 320 320 321 322 323 320 322 324 323 322 323 321 322 321 322 324 324 324 325 326 318 324 324 322 323 322 323 322
303 304 303 303 302 302 302 303 304 305 307 309 310 311 311 312 313 313 314 315 316 318 319 320 321 320 318 320 322 318 323 323 323 325 325 325 325 322 318 319 320 325 321 326 327 325 325 323 323 321 321 320 320 320
304 303 303 303 303 303 303 304 306 307 308 309 310 311 313 312 312 312 314 316 316 318 320 320 321 320 322 325 324 324 323 324 324 325 324 322 322 322 322 322 322 322 323 324 325 324 325 324 323 323 323 322 320 320
304 303 303 303 303 304 304 304 305 308 310 311 311 310 309 310 312 313 313 314 316 317 317 321 323 324 325 322 323 324 324 324 323 323 321 321 323 322 323 324 324 323 322 322 323 323 323 322 321 320 319 320 319 318
303 303 302 302 304 304 306 307 306 309 310 310 309 309 310 311 312 315 318 319 320 320 321 322 323 323 323 323 324 325 324 323 323 322 319 319 321 323 321 322 323 323 322 322 322 321 322 321 320 319 318 317 317 315
302 301 301 302 304 305 306 308 309 309 310 311 309 310 313 316 317 317 316 317 318 318 320 321 322 322 323 324 323 322 321 321 322 322 320 319 318 319 319 319 320 319 319 321 321 321 320 320 320 318 318 317 316 313
306 302 305 304 305 308 309 310 311 311 310 310 310 313 315 317 317 316 317 319 318 319 319 320 321 322 323 324 323 323 322 321 319 318 318 317 316 316 316 317 317 318 318 319 319 319 318 316 318 318 315 313 313 312
304 305 306 307 307 308 309 309 311 312 312 313 316 317 318 318 318 319 320 318 317 319 321 322 323 322 321 322 322 320 319 318 317 316 314 314 314 313 313 313 313 314 314 315 317 317 315 316 315 314 313 313 312 311
306 307 307 308 307 307 308 310 310 312 316 318 319 320 320 320 320 320 320 321 321 322 322 323 321 322 320 320 318 317 315 315 315 316 317 315 314 313 312 313 314 314 314 314 315 315 314 314 314 314 313 312 312 311
305 306 304 306 306 308 312 317 318 318 318 319 321 321 320 319 319 320 321 321 320 320 320 321 322 322 322 318 317 318 319 320 318 316 316 316 316 315 314 313 313 313 314 313 313 313 313 313 312 311 310 309 309 308
307 310 309 312 315 316 320 320 320 319 319 319 319 319 319 318 320 320 321 321 322 321 319 320 320 320 320 320 317 318 318 316 317 316 315 314 315 315 315 314 313 312 312 313 313 312 312 311 310 309 308 306 305 306
312 319 318 318 319 318 319 318 318 319 319 319 320 320 319 320 320 320 321 321 320 320 319 317 317 317 317 318 318 317 317 317 317 316 315 314 314 314 313 313 312 312 312 311 311 311 310 310 309 309 308 308 307 307
317 317 320 318 318 318 319 318 318 319 319 318 319 320 319 319 320 320 320 319 318 318 318 318 318 317 317 316 315 314 314 315 315 315 315 315 314 312 312 312 310 309 309 309 309 309 308 308 308 308 308 308 308 307
319 319 319 319 319 319 319 319 319 319 319 319 321 321 320 320 319 320 318 316 316 316 315 315 314 314 313 313 312 312 312 312 314 315 315 315 313 312 311 311 311 311 310 308 307 306 306 305 305 306 307 307 307 307
318 319 318 319 320 319 319 318 318 318 318 318 318 318 318 318 318 317 317 316 315 314 314 314 314 314 314 313 313 311 310 310 311 311 312 312 311 310 310 310 311 310 310 309 309 307 307 306 307 307 307 307 308 308
318 317 317 317 316 317 317 317 316 317 317 316 316 317 317 317 316 315 315 315 316 316 315 315 315 313 312 311 311 312 311 310 309 309 308 309 309 309 308 309 309 309 308 308 308 308 308 307 307 308 308 308 308 307
316 316 317 318 316 316 316 316 316 316 316 317 317 317 317 316 316 315 314 315 316 316 315 314 314 313 312 311 310 309 309 309 308 307 308 308 309 309 308 308 308 308 308 308 308 308 308 308 308 308 308 308 307 307
317 317 317 317 317 316 316 316 316 316 316 316 316 316 316 316 317 316 316 315 314 314 315 314 313 313 312 312 310 309 309 308 309 308 309 306 302 305 306 307 307 308 309 309 309 308 308 308 308 308 308 308 308 307
Wind_Speed
18 17 16 16 17 16 14 13 12 12 11 9 8 8 9 10 8 3 4 6 7 13 22 12 12 12 14 11 8 15 7 8 8 10 11 12 14 15 17 17 16 14 12 13 13 16 21 18 2 7 7 2 1 3
18 16 14 16 17 16 15 14 13 13 12 9 8 8 8 8 9 3 2 2 4 11 18 18 17 17 16 17 17 14 16 15 7 7 7 9 13 13 15 15 15 15 14 10 10 2 6 7 2 1 6 3 4 5
15 15 16 16 14 15 15 14 14 13 13 12 10 9 7 7 7 6 7 6 8 13 21 19 18 15 18 21 17 18 18 17 17 11 14 10 11 10 12 14 17 18 13 11 11 11 10 11 9 11 9 9 5 6
16 15 14 12 11 13 15 15 15 14 14 13 12 10 8 8 8 8 7 6 8 10 8 9 1 10 10 11 15 21 21 21 20 18 16 11 13 15 14 18 15 11 7 13 10 9 14 16 16 11 9 5 6 8
17 16 13 13 13 12 11 13 15 14 15 13 12 10 8 9 9 10 11 10 9 9 11 17 24 18 15 13 14 17 20 21 21 19 12 12 21 17 18 17 15 19 8 8 11 9 15 16 8 7 4 7 10 13
14 14 14 13 12 11 12 12 11 11 12 13 12 10 8 8 6 5 3 5 6 8 7 4 7 16 16 13 22 23 21 21 23 23 20 26 30 18 13 15 27 31 25 21 22 15 10 12 8 4 8 12 16 17
13 12 14 14 13 10 9 10 11 10 11 12 12 11 8 6 7 9 5 3 12 6 4 6 6 12 15 16 19 21 19 20 24 26 24 26 27 21 13 16 32 33 30 21 14 10 12 13 12 13 15 16 17 19
13 12 11 11 10 9 9 8 9 10 9 10 9 9 9 9 11 13 10 11 10 6 6 4 5 11 15 15 15 17 21 23 26 26 27 15 23 23 17 28 34 32 37 26 20 17 15 12 15 16 16 18 20 24
14 12 9 10 10 8 9 8 9 10 9 8 7 6 4 6 7 3 5 9 8 8 5 6 9 9 5 11 11 17 18 12 24 11 17 20 13 9 14 27 35 30 31 27 24 11 17 18 19 19 18 19 20 24
14 12 8 10 11 9 7 9 10 10 8 8 6 4 5 6 8 5 8 6 7 7 8 8 16 13 17 10 5 10 7 8 11 12 27 14 15 33 36 34 24 20 27 26 15 6 23 8 14 17 15 17 17 22
12 11 10 9 11 11 9 12 13 12 11 7 6 5 3 7 10 6 6 7 9 5 9 13 20 13 17 11 3 1 2 4 5 4 9 14 16 23 38 34 31 23 30 26 18 10 12 13 11 15 14 15 18 22
10 10 10 10 13 12 12 14 16 15 8 7 4 4 4 7 7 5 4 5 6 5 10 12 11 16 12 10 2 6 2 3 6 10 2 5 12 18 17 17 25 22 14 22 8 8 8 10 14 17 17 16 11 18
11 10 11 12 15 12 14 16 17 14 8 5 4 3 3 5 4 6 10 7 6 7 4 5 5 3 4 4 3 4 5 5 7 4 4 3 9 10 11 26 7 23 7 4 3 2 4 9 12 14 14 14 19 16
9 9 11 12 14 15 16 15 13 13 5 3 3 3 4 5 6 10 6 3 9 3 5 5 7 5 7 6 2 3 4 2 6 5 2 6 7 12 12 3 8 11 6 4 2 1 2 5 7 10 10 8 7 8
8 9 10 12 13 15 16 16 15 11 4 3 2 4 7 12 12 15 9 5 6 5 2 2 7 5 4 4 4 4 4 5 4 2 3 4 8 7 8 8 4 2 4 5 10 8 6 7 7 6 5 5 15 18
10 11 11 14 17 17 16 16 14 8 3 4 7 8 12 12 9 9 11 11 10 9 5 6 4 3 4 3 4 0 5 3 3 0 1 4 5 7 6 5 3 2 2 4 12 9 5 7 11 18 18 19 12 14
12 6 17 17 15 15 15 12 8 5 6 5 7 10 10 13 11 13 11 13 12 8 3 4 4 2 1 3 2 2 3 4 6 6 5 5 5 5 6 5 2 3 4 5 7 8 8 10 8 11 15 15 16 17
5 15 17 17 17 15 15 6 5 5 6 11 12 5 3 7 13 17 14 10 7 5 5 2 6 5 5 3 4 2 13 16 13 11 13 13 12 12 10 11 11 10 11 12 12 11 10 12 12 14 14 14 13 14
15 17 17 17 15 7 6 5 5 4 7 8 11 14 14 13 13 15 18 13 11 12 11 6 3 3 3 4 4 7 8 10 13 15 17 16 15 15 14 14 16 18 18 17 16 15 15 13 10 9 9 9 15 16
13 15 18 17 13 5 5 6 8 6 3 4 8 11 8 10 11 8 8 7 5 3 2 4 3 5 6 7 8 7 9 13 17 17 17 17 15 18 21 13 15 16 17 16 16 16 16 15 13 13 14 14 13 12
11 13 13 14 12 9 6 4 4 5 5 3 7 9 5 5 5 3 2 5 1 2 1 6 9 6 8 10 11 13 13 13 17 18 17 13 12 10 16 20 15 13 14 12 13 12 12 13 13 12 12 9 9 8
4 10 6 9 4 4 6 5 6 8 2 6 7 3 2 2 6 6 4 1 3 4 4 8 8 9 11 13 14 15 16 16 15 14 12 16 13 13 11 8 9 9 8 9 10 11 11 10 6 9 8 8 8 7
9 6 5 4 4 4 6 7 3 2 2 3 3 2 1 1 3 4 4 4 3 3 3 5 8 11 14 14 15 16 15 13 13 12 13 11 11 11 11 10 9 10 10 8 7 7 6 6 7 7 7 5 4 4
5 3 3 3 3 4 5 3 2 3 3 3 1 3 2 3 3 4 4 5 11 6 6 8 11 12 14 14 16 14 12 13 11 6 3 9 10 10 10 11 11 10 9 8 8 7 7 6 6 4 3 4 3 3
3 4 4 5 5 3 3 2 2 1 2 2 3 5 1 2 3 4 4 6 15 15 14 13 12 12 13 17 11 8 5 3 1 6 4 3 6 9 10 10 9 9 8 7 7 6 6 5 5 5 5 3 3 3
4 6 10 7 9 5 3 2 0 7 4 4 4 4 6 4 3 5 4 7 11 14 13 12 12 11 12 12 14 6 10 4 8 10 10 10 9 11 9 7 8 9 8 6 5 5 4 4 3 3 2 6 4 3
4 6 3 3 3 12 2 8 8 6 7 5 3 2 4 5 4 3 4 5 7 8 11 12 12 10 7 6 6 5 4 7 5 4 5 6 7 6 5 6 5 4 6 5 4 4 3 3 3 3 2 2 2 2
4 8 9 10 10 11 12 9 6 5 4 4 3 5 3 2 3 3 5 5 6 8 7 5 3 4 4 4 6 6 4 1 4 3 3 3 5 6 5 2 7 3 1 3 7 5 4 3 3 3 3 3 3 3
4 6 6 7 10 8 5 5 6 6 5 4 7 6 5 6 8 7 5 5 5 6 5 5 3 2 3 4 6 6 6 5 6 3 4 4 5 5 5 3 1 1 1 2 3 4 12 2 5 1 2 2 4 4
12 16 17 18 14 7 13 13 20 16 20 21 20 17 13 9 10 7 5 4 5 7 6 6 7 8 6 7 5 5 7 6 5 7 7 5 5 4 3 3 2 2 1 2 3 3 7 9 6 6 4 5 5 6
12 12 19 19 15 11 12 15 12 12 12 13 12 11 11 9 9 7 7 6 5 4 5 7 6 7 7 6 5 5 6 6 8 6 6 4 3 3 3 3 3 2 3 3 3 4 6 6 5 5 5 6 7 8
9 8 8 8 9 7 6 7 5 6 6 5 6 5 8 5 10 7 6 5 6 3 4 4 7 6 5 5 6 5 4 3 4 4 3 3 1 1 3 5 4 3 4 4 5 5 6 7 6 6 7 7 8 9
4 5 3 3 3 2 6 3 3 2 2 5 7 8 9 8 8 6 4 7 4 6 6 4 5 4 3 2 2 2 1 0 9 8 13 12 4 3 3 3 3 4 6 5 6 7 6 6 7 7 8 9 10 11
Wind_Direction
272 271 270 271 273 272 270 272 271 268 268 278 306 317 315 322 335 237 266 280 271 283 282 291 296 299 293 260 283 5 301 245 266 244 255 267 266 263 269 264 242 235 208 222 234 247 251 6 124 266 62 119 298 337
271 268 267 270 269 271 265 262 265 261 263 267 282 298 307 309 329 356 324 281 265 270 272 292 275 266 263 266 290 292 287 308 306 327 259 274 268 269 270 270 268 252 254 228 247 90 217 251 267 62 286 303 292 284
259 262 270 277 270 264 264 264 254 256 255 262 269 281 291 292 308 318 274 289 297 289 294 265 265 272 256 248 248 263 263 271 287 301 309 293 286 293 274 258 265 266 235 255 268 252 206 195 240 220 242 251 267 307
255 265 270 269 270 272 264 255 253 253 245 252 256 266 284 285 291 298 275 270 273 287 285 274 196 254 255 249 242 242 255 269 280 286 280 278 274 274 283 294 299 296 48 321 272 258 258 262 257 250 252 199 238 269
258 255 255 252 263 269 261 251 251 251 240 244 248 262 276 286 293 297 276 255 250 251 302 303 300 270 253 246 243 239 242 249 255 258 254 255 260 276 281 284 278 281 283 218 261 273 356 269 252 238 293 285 269 272
260 248 243 250 260 265 254 253 254 238 236 235 238 249 267 292 292 313 294 183 233 243 280 291 310 263 244 248 234 242 242 243 247 251 253 260 256 253 269 272 278 280 278 290 260 274 256 280 315 310 291 277 270 272
251 257 252 249 256 265 249 239 232 230 226 229 231 241 252 282 257 243 294 205 183 182 251 262 264 241 216 238 241 244 238 237 246 247 246 255 262 264 255 258 262 275 275 269 304 298 272 266 278 282 281 271 262 252
248 255 256 243 234 247 235 220 218 217 218 218 229 235 243 262 276 270 258 249 201 229 256 263 263 264 220 227 238 221 232 230 231 247 255 253 272 262 249 254 269 262 272 266 274 263 254 255 250 257 261 259 252 245
240 242 247 235 227 235 226 217 208 203 203 205 205 217 260 259 246 287 217 216 210 235 273 269 264 285 197 255 283 292 255 243 241 231 236 224 227 238 255 242 248 249 255 270 257 249 254 247 243 243 251 253 245 252
234 233 240 232 217 212 213 198 191 183 181 172 169 203 235 221 186 157 152 186 211 221 232 249 264 276 295 293 308 337 344 302 265 255 244 234 243 244 239 252 273 274 263 284 290 174 259 265 258 257 262 262 270 245
222 226 227 223 207 203 203 190 182 174 169 178 213 228 230 153 179 217 218 205 200 227 217 249 240 254 248 257 245 151 337 328 272 271 265 244 239 240 235 238 244 247 254 241 232 256 272 268 276 262 259 272 282 290
220 224 225 221 206 203 200 191 185 178 189 207 249 260 221 200 210 239 202 211 217 242 195 218 237 204 234 262 151 191 237 230 260 340 351 250 244 229 270 276 215 205 243 254 226 239 267 279 274 280 277 275 295 236
233 228 221 218 201 201 195 191 193 193 232 262 229 240 196 211 228 231 198 205 212 222 331 342 288 244 218 209 212 221 213 243 352 268 221 274 302 214 265 305 199 193 166 103 43 314 278 290 286 274 300 315 333 261
223 220 210 198 196 197 189 188 185 187 229 244 223 228 234 216 226 222 257 103 270 234 220 257 268 229 201 186 213 251 290 219 218 223 60 37 106 135 174 327 59 68 82 77 87 111 6 339 310 321 324 345 6 195
186 178 193 178 172 180 177 174 175 182 246 238 220 243 230 251 348 304 311 234 241 324 258 291 241 236 196 227 201 201 235 239 3 319 318 15 46 71 65 49 60 109 143 157 140 113 77 30 24 36 43 159 62 85
170 163 164 161 153 155 162 165 176 194 253 237 223 248 277 300 301 304 314 328 317 312 293 242 263 238 213 265 227 125 338 350 272 136 229 149 78 57 56 51 110 61 140 78 150 131 74 52 100 96 93 101 121 87
142 151 154 150 149 152 160 163 179 225 234 228 237 240 279 288 295 299 311 314 313 310 255 230 232 93 58 265 117 257 242 202 137 78 51 52 70 60 56 65 67 57 79 80 118 140 119 107 112 110 98 88 86 93
149 153 154 151 154 154 176 198 225 245 249 248 260 286 318 285 287 287 294 302 313 290 281 263 297 168 219 180 98 233 47 58 66 80 74 74 84 95 99 102 108 108 101 108 118 123 116 121 105 104 104 105 106 108
141 155 157 158 155 173 188 225 231 263 261 297 291 294 293 283 279 272 277 281 275 275 288 269 307 11 52 100 73 61 64 90 94 79 82 84 85 89 89 88 90 87 88 93 98 100 102 102 100 101 102 101 94 92
147 155 163 174 182 197 236 221 202 247 264 255 257 265 263 260 270 283 273 261 247 263 303 0 8 59 58 57 73 82 101 114 102 94 81 83 82 82 68 72 90 93 93 93 95 101 104 103 101 107 108 105 102 95
150 173 179 190 220 267 259 267 237 237 244 272 305 292 277 276 253 279 278 177 129 48 297 34 44 54 55 68 79 100 96 108 106 105 97 86 80 88 108 109 101 90 95 96 88 90 102 109 120 117 117 121 112 97
191 170 174 232 263 263 262 244 270 297 269 285 299 290 310 176 127 171 165 145 43 39 46 40 42 68 81 81 87 93 93 95 101 97 77 74 70 55 61 86 91 91 105 108 96 108 110 102 135 133 114 109 104 98
152 198 259 245 259 253 272 306 286 306 234 288 301 239 232 131 116 167 112 82 79 83 83 76 78 89 84 96 92 91 94 105 105 102 92 75 68 65 66 63 60 68 75 71 101 93 81 112 70 102 106 99 98 111
238 253 248 271 265 275 292 278 275 297 290 260 24 83 83 52 46 70 61 43 39 59 101 116 114 103 99 90 92 94 90 95 103 97 87 79 77 70 63 60 64 65 66 69 77 81 88 102 105 85 90 102 80 70
249 216 202 248 255 252 239 237 168 216 282 319 56 98 144 123 88 74 55 46 45 61 78 98 109 104 98 80 88 93 68 355 342 93 72 66 104 106 93 77 63 54 59 72 73 77 80 82 79 77 65 52 46 45
252 197 182 221 172 230 219 189 166 143 157 80 81 71 84 70 35 59 53 31 51 60 79 98 89 87 77 109 105 119 58 43 54 60 43 37 36 35 44 45 58 51 44 51 62 70 68 60 51 43 66 45 70 20
282 9 308 216 212 185 198 82 73 64 53 36 14 84 60 56 42 61 64 70 69 81 80 82 85 90 81 93 106 70 86 75 66 40 37 41 42 32 31 39 51 41 34 55 55 53 47 36 24 8 350 328 335 342
318 348 358 5 60 48 39 50 46 32 25 358 47 47 72 62 61 81 110 84 72 88 78 79 74 61 53 25 15 23 36 330 75 134 102 70 45 52 42 68 17 176 323 126 72 65 43 17 357 352 346 333 320 323
333 16 5 52 65 71 58 38 11 44 30 68 90 85 91 103 116 111 119 115 100 78 78 84 65 105 101 82 50 26 17 3 15 342 298 170 141 30 23 23 23 80 135 40 6 32 17 34 27 43 347 333 328 324
35 71 68 67 65 61 59 70 66 85 84 88 95 99 105 109 100 111 115 92 73 69 68 57 38 29 19 14 48 37 28 33 37 29 24 31 11 3 11 18 32 9 325 330 315 304 8 356 317 347 342 338 334 336
44 58 82 80 87 84 71 87 83 88 90 93 110 115 117 122 104 70 56 46 42 51 42 33 54 30 16 11 6 28 67 37 38 46 56 46 32 33 43 35 27 2 345 335 323 313 316 332 327 321 320 322 321 326
65 59 55 88 99 107 96 93 88 99 97 134 159 140 109 114 99 72 22 359 5 62 47 13 17 30 30 34 47 54 74 55 38 19 42 59 56 30 39 17 347 351 341 336 328 324 321 322 316 316 316 316 317 319
39 27 29 43 27 44 80 59 32 3 53 67 52 61 98 91 54 41 51 14 7 4 24 28 20 9 25 48 29 19 23 32 10 16 19 16 21 153 30 353 342 355 341 335 336 330 326 324 322 317 318 317 316 316